Location: Cactus School
(34.5700°N, 118.0931°W)
Time: 09:24:04
(UTC-07:00)

A-11 Canister half - Pass Details

Date: 30 April 2024
Orbit: 1525 x 1683 km, 47.3° (Epoch: 25 May)

Event Time Altitude Azimuth Distance (km) Brightness Sun altitude
Exits shadow 01:56:44 33° 113° (ESE) 2,468 9.9 -37.9°
Drops below altitude 10° 02:03:54 10° 68° (ENE) 3,893 11.5 -37.4°
Sets 02:07:26 0° 60° (ENE) 4,902 12.3 -37.1°
